Regional Weather Roundup
Issued by NWS Glasgow, MT

Home | Current Version | Previous Version | Text Only | Print | Product List | Glossary On
Versions: 1 2 3 4 5 6 7 8 9 10 11 12 13 14 15 16 17 18 19 20 21 22 23 24 25 26 27 28
000
ASUS45 KGGW 230815
RWRGGW
HOURLY REGIONAL WEATHER ROUNDUP FOR NORTHEAST MONTANA
NATIONAL WEATHER SERVICE GLASGOW MONTANA
100 AM MST FRI FEB 23 2018

NOTE: "FAIR" INDICATES FEW OR NO CLOUDS BELOW 12,000 FEET WITH NO
SIGNIFICANT WEATHER AND/OR OBSTRUCTIONS TO VISISBILITY.

NORTHEAST MONTANA


CITY           SKY/WX    TMP DP  RH WIND       PRES   REMARKS
GLASGOW        MOCLDY   -15 -20  78 NW9       30.24F
PLENTYWOOD       N/A      1  -2  87 N3G13       N/A
WOLF POINT     PTCLDY   -13 -19  75 SW7       30.28S
JORDAN           N/A    -13 -19  75 W8        30.23F
SIDNEY         CLEAR    -15 -19  82 CALM      30.27S
GLENDIVE       PTCLDY   -11 -17  75 W7        30.23S
MALTA            N/A     -9 -12  87 SW5         N/A

FORT PECK REPORTS


CITY           SKY/WX    TMP DP  RH WIND       PRES   REMARKS
FORT PECK        N/A    -13 -17  82 SW5         N/A
THE PINES        N/A     -7 -11  83 SW3         N/A

SOUTHEAST MONTANA


CITY           SKY/WX    TMP DP  RH WIND       PRES   REMARKS
BILLINGS       MOCLDY     4  -1  80 SW5       30.15F
MILES CITY     MOCLDY   -15 -18  86 SW7       30.24S
BAKER          PTCLDY    -6  -8  91 W6        30.18S
LIVINGSTON       N/A     -2  -6  83 SW3       30.07S

CENTRAL MONTANA


CITY           SKY/WX    TMP DP  RH WIND       PRES   REMARKS
HAVRE          MOCLDY    -6 -10  83 W8        30.22F
LEWISTOWN      PTCLDY    -7 -11  83 SE7       30.11S
GREAT FALLS    CLEAR     -7 -11  83 SW9       30.14F
CUT BANK       CLEAR     -6  -9  86 CALM      30.09F
HELENA         PTCLDY     0  -6  76 NE3       30.13S
BUTTE          CLOUDY    10   5  80 N5        29.97R
BOZEMAN        MOCLDY     3  -3  76 S3        30.07S

WESTERN MONTANA


CITY           SKY/WX    TMP DP  RH WIND       PRES   REMARKS
MISSOULA       PTCLDY    10   4  76 E3        30.16R
KALISPELL      NOT AVBL

NORTH DAKOTA


CITY           SKY/WX    TMP DP  RH WIND       PRES   REMARKS
WILLISTON      CLEAR     -8 -13  78 SW5       30.25S
DICKINSON      CLEAR     -2  -6  83 W10       30.14S WCI -19
MINOT          CLOUDY     5  -2  72 W10       30.18F WCI -10
BISMARCK       CLOUDY    14   5  67 NW10      30.18F

SOUTHERN SASKATCHEWAN


CITY           SKY/WX    TMP DP  RH WIND       PRES   REMARKS
REGINA         CLEAR     -6  -9  84 W10       30.20S WCI -23
ESTEVAN        FLURRIES  -4  -9  77 W3        30.21R
SWIFT CURRENT  FLURRIES   1  -2  85 SW12      30.14F WCI -15





USA.gov is the U.S. government's official web portal to all federal, state and local government web resources and services.